This demonstration page uses our WeatherBlox Daily Observations layout. Learn more.

Left ArrowRight Arrow

39.01783, -85.05884

Hourly Observations for May 2, 2019

Temp ( °F °C ) Dew Point ( °F °C ) Humidity (%) Winds ( mph kmh ) Pressure ( in mb ) Visibility ( mi km ) Precip ( " mm )
12:31 am 00:31 Cloudy with Mist and Fog 64 17.8 63 17.2 96 96 Calm 30.09 1019 6 10 0.00 0.03
12:45 am 00:45 Cloudy with Mist and Fog 64 17.8 62 16.7 93 93 Calm 30.08 1019 5 8 0.00 0.03
12:52 am 00:52 Cloudy with Mist and Fog 64 17.8 63 17.2 96 96 NNW 3 6 30.07 1018 5 8 0.00 0.03
1:17 am 01:17 Cloudy with Patchy Fog 64 17.8 62 16.7 93 93 Calm 30.08 1019 5 8 0.00 0.00
1:52 am 01:52 Cloudy with Patchy Fog 63 17.2 61 16.1 93 93 S 3 6 30.07 1018 4 6 0.00 0.03
2:52 am 02:52 Cloudy with Patchy Fog 63 17.2 62 16.7 97 97 Calm 30.07 1018 3 5 0.00 0.00
3:20 am 03:20 Cloudy with Patchy Fog 64 17.8 62 16.7 93 93 Calm 30.07 1018 3 4 0.00 0.00
3:52 am 03:52 Cloudy with Patchy Fog 63 17.2 61 16.1 93 93 Calm 30.07 1018 2 3 0.00 0.00
4:13 am 04:13 Mostly Cloudy with Mist and Fog 62 16.7 61 16.1 96 96 Calm 30.09 1019 1 1 0.00 0.00
4:26 am 04:26 Mostly Cloudy with Mist and Fog 62 16.7 61 16.1 96 96 SW 3 6 30.10 1019 1 1 0.00 0.00
4:48 am 04:48 Cloudy with Mist and Fog 63 17 63 17 100 100 Calm 30.10 1019 1 1 0.00 0.00
4:52 am 04:52 Cloudy with Fog 63 17.2 62 16.7 97 97 Calm 30.09 1019 1 1 0.00 0.00
5:08 am 05:08 Mostly Cloudy with Fog 63 17.2 61 16.1 93 93 Calm 30.10 1019 0 0 0.00 0.00
5:40 am 05:40 Cloudy with Patchy Fog 61 16.1 60 15.6 97 97 S 3 6 30.10 1019 1 2 0.00 0.00
5:52 am 05:52 Cloudy with Patchy Fog 62 16.7 60 15.6 93 93 S 3 6 30.08 1019 1 2 0.00 0.00
6:10 am 06:10 Mostly Cloudy with Patchy Fog 62 16.7 61 16.1 96 96 S 3 6 30.10 1019 3 4 0.00 0.00
6:52 am 06:52 Mostly Cloudy with Patchy Fog 61 16.1 60 15.6 97 97 SE 5 7 30.08 1019 3 4 0.00 0.00
7:32 am 07:32 Mostly Cloudy with Patchy Fog 62 16.7 61 16.1 96 96 SSW 6 9 30.10 1019 3 5 0.00 0.00
7:42 am 07:42 Cloudy with Patchy Fog 63 17.2 61 16.1 93 93 SSW 6 9 30.11 1020 5 8 0.00 0.00
7:52 am 07:52 Mostly Cloudy with Fog 63 17.2 62 16.7 97 97 SSW 6 9 30.11 1020 5 8 0.00 0.00
8:23 am 08:23 Cloudy with Fog 63 17.2 62 16.7 97 97 S 7 11 30.12 1020 1 2 0.00 0.00
8:30 am 08:30 Mostly Cloudy with Fog 63 17.2 62 16.7 97 97 S 7 11 30.12 1020 1 2 0.00 0.00
8:52 am 08:52 Mostly Cloudy with Mist and Fog 64 17.8 63 17.2 96 96 S 6 9 30.11 1020 1 2 0.00 0.00
8:55 am 08:55 Mostly Cloudy with Mist and Fog 65 18.3 64 17.8 97 97 S 6 9 30.11 1020 2 3 0.00 0.00
9:02 am 09:02 Mostly Cloudy with Mist and Fog 65 18.3 63 17.2 93 93 S 5 7 30.10 1019 5 8 0.00 0.00
9:25 am 09:25 Partly Cloudy with Mist and Fog 66 18.9 64 17.8 93 93 SE 5 7 30.10 1019 6 10 0.00 0.00
9:52 am 09:52 Mostly Cloudy 69 20.6 64 17.8 84 84 S 7 11 30.10 1019 8 13 0.00 0.00
10:52 am 10:52 Mostly Cloudy 70 21.1 64 17.8 82 82 SSW 10 17 30.12 1020 8 13 0.00 0.00
11:02 am 11:02 Mostly Cloudy 70 21.1 63 17.2 79 79 S 10 17 30.11 1020 9 14 0.00 0.00
11:52 am 11:52 Cloudy with Light Rain 71 21.7 64 17.8 79 79 S 7 11 30.11 1020 8 13 0.00 0.03
12:52 pm 12:52 Cloudy 75 23.9 64 17.8 69 69 S 9 15 30.08 1019 10 16 0.01 0.25
1:42 pm 13:42 Cloudy with Thunderstorms 74 23.3 65 18.3 74 74 W 17 28 30.09 1019 10 16 0.00 0.00
2:03 pm 14:03 Cloudy with Rain 64 17.8 61 16.1 90 90 NW 8 13 30.10 1019 2 3 0.13 3.30
2:09 pm 14:09 Cloudy with Light Rain 64 17.8 62 16.7 93 93 WSW 6 9 30.10 1019 6 10 0.13 3.30
2:52 pm 14:52 Mostly Cloudy 69 20.6 63 17.2 81 81 W 5 7 30.09 1019 10 16 0.14 3.56
3:52 pm 15:52 Mostly Cloudy 73 22.8 63 17.2 71 71 N 7 11 30.07 1018 10 16 0.00 0.00
4:52 pm 16:52 Mostly Cloudy 74 23.3 63 17.2 69 69 NW 7 11 30.05 1018 10 16 0.00 0.00
5:52 pm 17:52 Cloudy 73 22.8 62 16.7 69 69 NNW 6 9 30.06 1018 10 16 0.00 0.00
6:52 pm 18:52 Cloudy 72 22.2 59 15 64 64 WNW 6 9 30.04 1017 10 16 0.00 0.00
7:52 pm 19:52 Mostly Cloudy 72 22.2 61 16.1 68 68 Calm 30.04 1017 10 16 0.00 0.00
8:30 pm 20:30 Mostly Cloudy 69 20.6 60 15.6 73 73 ESE 7 11 30.04 1017 10 16 0.00 0.00
8:52 pm 20:52 Partly Cloudy 69 20.6 63 17.2 81 81 SSE 8 13 30.03 1017 10 16 0.00 0.00
9:52 pm 21:52 Mostly Cloudy 66 18.9 62 16.7 87 87 SSE 5 7 30.03 1017 10 16 0.00 0.00
10:52 pm 22:52 Mostly Cloudy 65 18.3 62 16.7 90 90 S 7 11 30.03 1017 10 16 0.00 0.00
11:52 pm 23:52 Cloudy 65 18.3 62 16.7 90 90 S 8 13 30.01 1016 10 16 0.00 0.00

Powered by AerisWeather